[[{"header":{"parameterUnit":"m.s-1","parameterCategory":1,"la1":30.2991,"la2":30.254,"lo1":-89.0895,"lo2":-89.0444,"dy":0.0017,"dx":0.0017,"nx":28,"ny":28,"refTime":"2025-11-14T09:00:00:Z","depth":0,"parameterNumber":2,"parameterNumberName":"U-component_of_WINDS"},"data":[0,0,0,0,0,0,0,0,0,0,0,0,0,0,0,0,0,0,0,0,0,0,0,0,0,0,0,0,0,0,0,0,0,0,0,0,0,0,0,0,0,0,0,0,0,0,0,0,0,0,0,0,0,0,0,0,0,0,0.0125,0.0126,0,0.021,0.0211,0.0212,0.024,0.024,0.0239,0.0239,0.0328,0.0331,0.0334,0,0,0,0,0,0,0,0,0,0,0,0,0,-0.0014,-0.0012,0.0125,0.0126,0.0127,0.021,0.0211,0.0213,0.024,0.024,0.0239,0.0239,0.0327,0.0331,0.0334,0,0,0,0,0,0,0,0,0,0,0,0,0,0.0056,-0.0011,0.0124,0.0151,0.0154,0.021,0.0211,0.0213,0.024,0.024,0.0239,0.0239,0.0326,0.033,0.0334,0.0371,0,0,0.0347,0.0349,0,0,0,0,0,0,0,0,0.0052,0.0061,0.0146,0.0149,0.0153,0.0214,0.0195,0.0266,0.0241,0.0208,0.0239,0.0238,0.0291,0.0298,0.0315,0.0375,0.0379,0.0347,0.035,0.0351,0.0353,0,0,0,0,0,0,0,0.0047,0.0058,0.0159,0.0147,0.0151,0.0158,0.0168,0.0209,0.0251,0.021,0.0213,0.0222,0.0293,0.0311,0.0317,0.038,0.0347,0.0351,0.0353,0.0355,0.0475,0.0476,0,0,0,0,0,0,0.0038,0.0053,0.0156,0.0161,0.01,0.0161,0.0172,0.0195,0.0251,0.0259,0.0223,0.0223,0.0304,0.0313,0.0321,0.0367,0.0351,0.0355,0.0358,0.0474,0.0475,0.0476,0,0,0,0,0,0,0.0035,0.0047,0.0152,0.0108,0.0122,0.0164,0.019,0.0197,0.0215,0.026,0.0268,0.0234,0.0304,0.0315,0.0358,0.0371,0.0357,0.0361,0.0473,0.0474,0.0475,0.0461,0,0,0,0,0,0,0.0031,0.0045,0.006,0.0108,0.0124,0.0188,0.0191,0.0199,0.0222,0.0224,0.0273,0.028,0.0305,0.0352,0.0362,0.0376,0.0364,0.0472,0.0474,0.0475,0.0461,0.0462,0.0462,0,0,0,0,0,0.0025,0.0053,0.006,0.0072,0.0143,0.0189,0.0198,0.0225,0.0223,0.0238,0.0267,0.0279,0.0368,0.0356,0.0368,0.0383,0.0472,0.0473,0.0475,0.046,0.0461,0.0462,0,0,0,0,0,0,0.0005,0.0059,0.0068,0.0112,0.0145,0.0193,0.0213,0.0226,0.0261,0.0261,0.0293,0.0304,0.0345,0.0369,0.0355,0.0422,0.042,0.0424,0.0405,0.0406,0.0407,0.0401,0.0367,0,0,0,0,0,0.0005,0.0038,0.0084,0.0118,0.0134,0.017,0.0192,0.0209,0.0246,0.026,0.0292,0.0327,0.0363,0.0386,0.0422,0.0464,0.0475,0.048,0.0481,0.0482,0.0485,0.0509,0.0512,0.0481,0.0481,0.0481,0,0,0.0007,0.0041,0.0059,0.0114,0.0143,0.0176,0.0182,0.0217,0.0242,0.0266,0.0308,0.0333,0.0374,0.0417,0.0438,0.0438,0.0496,0.0484,0.0484,0.0487,0.0511,0.0514,0.0517,0.0482,0.0482,0.0482,0,0,0.0027,0.0055,0.0087,0.0114,0.0157,0.0181,0.0188,0.0234,0.0251,0.0294,0.0312,0.0343,0.0404,0.0432,0.0455,0.0484,0.0497,0.0495,0.05,0.0523,0.0525,0.0528,0.0538,0.0542,0.0498,0.0498,0.0498,0,0.0023,0.0074,0.0101,0.0135,0.0159,0.0181,0.0213,0.0239,0.029,0.0306,0.0306,0.0383,0.0412,0.0462,0.0469,0.0486,0.0496,0.049,0.0523,0.0525,0.0528,0.0538,0.0542,0.0498,0.0498,0.0498,0.0498,0,0.0067,0.0102,0.0122,0.0171,0.0197,0.023,0.0262,0.0286,0.0301,0.0325,0.0368,0.0404,0.0447,0.046,0.0476,0.0512,0.0511,0.0516,0.0515,0.053,0.054,0.0545,0.0497,0.0497,0.0497,0.0497,0,0,0.0077,0.014,0.0147,0.017,0.0218,0.0245,0.0279,0.032,0.0339,0.0374,0.0403,0.0454,0.0459,0.0484,0.0503,0.0523,0.0544,0.0526,0.0528,0.0528,0.0587,0.0583,0.0587,0.0553,0.0554,0.0554,0.0583,0,0.0103,0.0164,0.0189,0.0238,0.0271,0.0292,0.0321,0.0354,0.0377,0.0408,0.0434,0.0469,0.0473,0.0488,0.0509,0.0537,0.0557,0.0536,0.058,0.0582,0.057,0.0592,0.0588,0.0614,0.0588,0.0588,0.0589,0,0.0141,0.0176,0.0228,0.0272,0.0286,0.0312,0.0352,0.0381,0.0419,0.0434,0.0462,0.048,0.0516,0.0512,0.0563,0.0548,0.0568,0.0584,0.0586,0.0591,0.0586,0.0599,0.0623,0.0627,0.0595,0.0595,0.0594,0,0.0143,0.0203,0.0242,0.026,0.0312,0.033,0.0352,0.0389,0.0412,0.0447,0.0462,0.0501,0.0522,0.0552,0.058,0.0574,0.0628,0.0626,0.0642,0.0641,0.0652,0.0651,0.068,0.0665,0.0664,0.0664,0.0664,0,0.017,0.0201,0.0243,0.0267,0.0302,0.0331,0.0366,0.039,0.0422,0.0451,0.0472,0.0499,0.0534,0.0565,0.0587,0.0625,0.0635,0.0648,0.0654,0.0647,0.0645,0.066,0.0659,0.0665,0.0665,0.0665,0.0665,0,0.0178,0.0208,0.0251,0.0297,0.0309,0.0333,0.0372,0.0396,0.042,0.0456,0.0466,0.0504,0.0542,0.0572,0.0622,0.0637,0.0677,0.0683,0.0664,0.0667,0.0681,0.0679,0.0721,0.0728,0.0707,0.0707,0.0707,0,0.0193,0.0217,0.0265,0.0286,0.0308,0.0341,0.0365,0.0394,0.0418,0.0462,0.0481,0.052,0.0553,0.0612,0.0644,0.0682,0.069,0.0702,0.0696,0.0687,0.069,0.0688,0.0691,0.0702,0.0702,0.0702,0.0703,0,0.0216,0.023,0.0263,0.0301,0.0328,0.036,0.0392,0.0408,0.0443,0.0468,0.0507,0.0533,0.0583,0.0622,0.0663,0.0686,0.07,0.0704,0.071,0.0703,0.0691,0.0697,0.0666,0.0703,0.0703,0.0703,0.0703,0.0703,0.0229,0.0251,0.0288,0.0324,0.0351,0.038,0.0405,0.0432,0.0465,0.0508,0.0523,0.0563,0.0599,0.0656,0.068,0.0711,0.0712,0.0721,0.0723,0.0724,0.0723,0.0685,0.0719,0.0719,0.0719,0.0719,0.0719,0,0.0253,0.0278,0.0311,0.0355,0.0383,0.0393,0.0429,0.0452,0.0486,0.0519,0.0551,0.0595,0.0633,0.0667,0.0706,0.0725,0.0733,0.0734,0.0734,0.0739,0.072,0.0711,0.0728,0.0728,0.0728,0.0728,0.0728,0.0728,0.0269,0.0308,0.0325,0.0377,0.0402,0.0441,0.046,0.0488,0.0514,0.0562,0.0593,0.0615,0.0649,0.0691,0.0725,0.0735,0.0748,0.0748,0.0759,0.0741,0.074,0.0739,0.0731,0.0751,0.0751,0.0775,0.0776,0.0776]},{"header":{"parameterUnit":"m.s-1","parameterCategory":1,"la1":30.2991,"la2":30.254,"lo1":-89.0895,"lo2":-89.0444,"dy":0.0017,"dx":0.0017,"nx":28,"ny":28,"refTime":"2025-11-14T09:00:00:Z","depth":0,"parameterNumber":3,"parameterNumberName":"V-component_of_WINDS"},"data":[0,0,0,0,0,0,0,0,0,0,0,0,0,0,0,0,0,0,0,0,0,0,0,0,0,0,0,0,0,0,0,0,0,0,0,0,0,0,0,0,0,0,0,0,0,0,0,0,0,0,0,0,0,0,0,0,0,0,2.9123,2.9123,0,2.9141,2.9141,2.9142,2.9131,2.913,2.913,2.9129,2.9145,2.9146,2.9147,0,0,0,0,0,0,0,0,0,0,0,0,0,2.9076,2.9077,2.9123,2.9123,2.9123,2.9141,2.9141,2.9142,2.9131,2.913,2.913,2.9129,2.9145,2.9146,2.9147,0,0,0,0,0,0,0,0,0,0,0,0,0,2.9096,2.9077,2.9123,2.912,2.912,2.9141,2.9141,2.9142,2.9131,2.913,2.9129,2.9129,2.9145,2.9146,2.9147,2.9171,0,0,2.9152,2.9152,0,0,0,0,0,0,0,0,2.9095,2.9097,2.912,2.912,2.912,2.9133,2.9131,2.9152,2.9131,2.9127,2.9129,2.9128,2.9142,2.9143,2.9148,2.9172,2.9173,2.9152,2.9153,2.9153,2.9154,0,0,0,0,0,0,0,2.9093,2.9097,2.913,2.9121,2.9121,2.9117,2.9119,2.9135,2.9138,2.9127,2.9126,2.9129,2.9142,2.9147,2.9149,2.9173,2.9152,2.9153,2.9154,2.9154,2.9217,2.9218,0,0,0,0,0,0,2.9092,2.9095,2.913,2.9131,2.9105,2.9119,2.9121,2.913,2.9138,2.9139,2.9129,2.9128,2.9145,2.9147,2.9149,2.9178,2.9153,2.9154,2.9155,2.9217,2.9218,2.9219,0,0,0,0,0,0,2.9091,2.9096,2.9129,2.9113,2.9117,2.912,2.913,2.913,2.9136,2.914,2.914,2.9135,2.9145,2.9147,2.9166,2.9178,2.9155,2.9156,2.9216,2.9217,2.9218,2.9236,0,0,0,0,0,0,2.909,2.9095,2.9105,2.9113,2.9118,2.9146,2.9131,2.9131,2.9139,2.9137,2.9145,2.9145,2.9144,2.9164,2.9168,2.918,2.9157,2.9215,2.9216,2.9218,2.9234,2.9238,2.9241,0,0,0,0,0,2.9089,2.9109,2.9106,2.911,2.913,2.9147,2.915,2.9149,2.914,2.9149,2.9152,2.9145,2.9176,2.9166,2.917,2.9183,2.9214,2.9216,2.9218,2.9233,2.9237,2.9241,0,0,0,0,0,0,2.9101,2.911,2.9106,2.913,2.9138,2.9145,2.9157,2.9153,2.9163,2.9161,2.9158,2.916,2.918,2.9183,2.9172,2.9207,2.9194,2.9196,2.9204,2.9208,2.9211,2.921,2.9158,0,0,0,0,0,2.9107,2.912,2.9127,2.9147,2.9151,2.9154,2.9161,2.916,2.9167,2.917,2.9174,2.9181,2.9193,2.92,2.9211,2.9234,2.9236,2.9245,2.9248,2.9251,2.9253,2.9266,2.927,2.9225,2.9225,2.9225,0,0,2.9118,2.9125,2.9133,2.915,2.9156,2.917,2.9156,2.9171,2.9181,2.9172,2.9191,2.9194,2.9202,2.9223,2.9232,2.9226,2.9266,2.9253,2.9255,2.9256,2.9268,2.9273,2.9277,2.9226,2.9226,2.9226,0,0,2.9146,2.9153,2.917,2.9177,2.9186,2.9188,2.9192,2.92,2.9202,2.9221,2.9214,2.9225,2.9245,2.9251,2.9257,2.9287,2.9282,2.9291,2.9307,2.932,2.9323,2.9326,2.9337,2.9341,2.9293,2.9293,2.9293,0,2.9159,2.918,2.918,2.9196,2.9203,2.9196,2.9214,2.9219,2.9232,2.9237,2.9229,2.9254,2.9259,2.9282,2.9289,2.9294,2.9298,2.929,2.9323,2.9326,2.9329,2.934,2.9344,2.9294,2.9294,2.9294,2.9294,0,2.9196,2.9211,2.9224,2.9237,2.9245,2.9262,2.9263,2.9272,2.9269,2.9271,2.929,2.9296,2.9308,2.9313,2.931,2.9335,2.9331,2.9323,2.931,2.9334,2.9344,2.9348,2.9296,2.9295,2.9295,2.9295,0,0,2.9232,2.9245,2.925,2.9256,2.9266,2.9277,2.9293,2.9306,2.9313,2.9322,2.9335,2.9352,2.9345,2.9351,2.9349,2.936,2.9384,2.9351,2.9352,2.9358,2.9412,2.9418,2.9423,2.9381,2.9381,2.9382,2.9412,0,2.9262,2.9291,2.9291,2.9317,2.9331,2.9324,2.9338,2.9345,2.9348,2.9359,2.936,2.9373,2.9363,2.9367,2.9377,2.9379,2.9395,2.9377,2.9392,2.9393,2.9391,2.9428,2.9434,2.9462,2.9416,2.9416,2.9417,0,2.9299,2.9311,2.9339,2.9347,2.9353,2.9366,2.9377,2.9388,2.9396,2.9396,2.9404,2.94,2.9416,2.9402,2.9423,2.9411,2.9417,2.9419,2.942,2.9422,2.9407,2.9431,2.9471,2.9476,2.9423,2.9422,2.9422,0,2.9324,2.9346,2.9365,2.9371,2.9381,2.939,2.9394,2.9402,2.9409,2.9419,2.9424,2.9435,2.9441,2.9449,2.9448,2.9438,2.947,2.9456,2.947,2.947,2.9478,2.9477,2.952,2.9481,2.9481,2.9481,2.9481,0,2.9357,2.9374,2.9377,2.9389,2.9408,2.9407,2.9426,2.943,2.9436,2.9448,2.9443,2.9454,2.9452,2.9464,2.9463,2.9481,2.9483,2.9484,2.9484,2.9485,2.9485,2.9489,2.9487,2.9482,2.9482,2.9481,2.9481,0,2.9387,2.939,2.9411,2.9419,2.9422,2.9436,2.9442,2.9453,2.9455,2.9471,2.9474,2.9476,2.9489,2.9489,2.9504,2.9503,2.9525,2.9522,2.9523,2.9523,2.9537,2.9536,2.9584,2.9591,2.9547,2.9548,2.9548,0,2.9408,2.9422,2.9432,2.944,2.9446,2.9459,2.9467,2.9466,2.9475,2.9485,2.9495,2.9507,2.9518,2.9538,2.9541,2.9552,2.9549,2.9566,2.9551,2.9552,2.955,2.955,2.9551,2.9569,2.9569,2.9569,2.957,0,2.9446,2.9446,2.9459,2.9471,2.9481,2.9491,2.95,2.9507,2.9507,2.9516,2.953,2.9538,2.9553,2.9566,2.9577,2.958,2.9575,2.9574,2.9578,2.958,2.958,2.958,2.9531,2.9573,2.9573,2.9573,2.9572,2.9572,2.9472,2.9484,2.9493,2.9507,2.9514,2.9523,2.9534,2.9537,2.9549,2.9562,2.9561,2.9576,2.9583,2.9597,2.9602,2.9613,2.9607,2.9613,2.9615,2.9616,2.9618,2.9578,2.9615,2.9615,2.9615,2.9615,2.9614,0,2.951,2.9515,2.9528,2.9541,2.9552,2.9547,2.9557,2.9566,2.958,2.9587,2.9598,2.9613,2.9625,2.9629,2.9641,2.9649,2.9647,2.9652,2.9652,2.9653,2.9622,2.9618,2.9654,2.9654,2.9654,2.9654,2.9654,2.9654,2.953,2.9551,2.9552,2.9575,2.958,2.9596,2.9602,2.961,2.9616,2.9634,2.9645,2.9647,2.9653,2.9665,2.9676,2.9676,2.9681,2.9687,2.9687,2.9659,2.9655,2.9651,2.9647,2.9688,2.9688,2.9716,2.9717,2.9717]}]]